owner,sensor,date,latitude,longitude,air_pressure(mBar),qcFlag 
TABS,ioos:station:wmo:42043:1,2003-02-01T15:39:00Z,28.9818,-94.9186,1008.9,11111222 
TABS,ioos:station:wmo:42043:1,2003-02-01T16:09:00Z,28.9818,-94.9186,1011.44,11111222 
TABS,ioos:station:wmo:42043:1,2003-02-01T16:39:00Z,28.9818,-94.9186,1013.92,11111222 
TABS,ioos:station:wmo:42043:1,2003-02-01T17:09:00Z,28.9818,-94.9186,1014.93,11111222 
TABS,ioos:station:wmo:42043:1,2003-02-01T17:39:00Z,28.9818,-94.9186,1020.39,11111222 
TABS,ioos:station:wmo:42043:1,2003-02-01T18:09:00Z,28.9818,-94.9186,1019.37,11111222 
TABS,ioos:station:wmo:42043:1,2003-02-01T18:39:00Z,28.9818,-94.9186,1014.36,11111222 
TABS,ioos:station:wmo:42043:1,2003-02-01T19:09:00Z,28.9818,-94.9186,1012.14,11111222 
TABS,ioos:station:wmo:42043:1,2003-02-01T19:39:00Z,28.9818,-94.9186,1008.27,11111222 
TABS,ioos:station:wmo:42043:1,2003-02-01T20:09:00Z,28.9818,-94.9186,1008.58,11111222 
TABS,ioos:station:wmo:42043:1,2003-02-01T20:39:00Z,28.9818,-94.9186,1009.28,11111222 
TABS,ioos:station:wmo:42043:1,2003-02-01T21:09:00Z,28.9818,-94.9186,1009.66,11111222 
TABS,ioos:station:wmo:42043:1,2003-02-01T21:39:00Z,28.9818,-94.9186,1008.84,11111222 
TABS,ioos:station:wmo:42043:1,2003-02-01T22:09:00Z,28.9818,-94.9186,1008.33,11111222 
TABS,ioos:station:wmo:42043:1,2003-02-01T22:39:00Z,28.9818,-94.9186,1002.43,11111222 
TABS,ioos:station:wmo:42043:1,2003-02-01T23:09:00Z,28.9818,-94.9186,994.17,11111222 
TABS,ioos:station:wmo:42043:1,2003-02-01T23:39:00Z,28.9818,-94.9186,987.26,11111222 
TABS,ioos:station:wmo:42043:1,2003-02-02T00:09:00Z,28.9818,-94.9186,983.7,11111222 
TABS,ioos:station:wmo:42043:1,2003-02-02T00:39:00Z,28.9818,-94.9186,982.94,11111222 
TABS,ioos:station:wmo:42043:1,2003-02-02T01:09:00Z,28.9818,-94.9186,982.69,11111222 
TABS,ioos:station:wmo:42043:1,2003-02-02T01:39:00Z,28.9818,-94.9186,982.3,11111222 
TABS,ioos:station:wmo:42043:1,2003-02-02T02:09:00Z,28.9818,-94.9186,982.24,11111222 
TABS,ioos:station:wmo:42043:1,2003-02-02T02:39:00Z,28.9818,-94.9186,982.18,11111222 
TABS,ioos:station:wmo:42043:1,2003-02-02T03:09:00Z,28.9818,-94.9186,982.5,11111222 
TABS,ioos:station:wmo:42043:1,2003-02-02T03:39:00Z,28.9818,-94.9186,982.5,11111222 
TABS,ioos:station:wmo:42043:1,2003-02-02T04:09:00Z,28.9818,-94.9186,982.62,11111222 
TABS,ioos:station:wmo:42043:1,2003-02-02T04:39:00Z,28.9818,-94.9186,983.51,11111222 
TABS,ioos:station:wmo:42043:1,2003-02-02T05:09:00Z,28.9818,-94.9186,983.32,11111222 
TABS,ioos:station:wmo:42043:1,2003-02-02T05:39:00Z,28.9818,-94.9186,982.94,11111222 
TABS,ioos:station:wmo:42043:1,2003-02-02T06:09:00Z,28.9818,-94.9186,982.56,11111222 
TABS,ioos:station:wmo:42043:1,2003-02-02T06:39:00Z,28.9818,-94.9186,982.62,11111222 
TABS,ioos:station:wmo:42043:1,2003-02-02T07:09:00Z,28.9818,-94.9186,983.0,11111222 
TABS,ioos:station:wmo:42043:1,2003-02-02T07:39:00Z,28.9818,-94.9186,983.13,11111222 
TABS,ioos:station:wmo:42043:1,2003-02-02T08:09:00Z,28.9818,-94.9186,982.62,11111222 
TABS,ioos:station:wmo:42043:1,2003-02-02T08:39:00Z,28.9818,-94.9186,982.62,11111222 
TABS,ioos:station:wmo:42043:1,2003-02-02T09:09:00Z,28.9818,-94.9186,982.69,11111222 
TABS,ioos:station:wmo:42043:1,2003-02-02T09:39:00Z,28.9818,-94.9186,982.88,11111222 
TABS,ioos:station:wmo:42043:1,2003-02-02T10:09:00Z,28.9818,-94.9186,981.92,11111222 
TABS,ioos:station:wmo:42043:1,2003-02-02T10:39:00Z,28.9818,-94.9186,982.18,11111222 
TABS,ioos:station:wmo:42043:1,2003-02-02T11:09:00Z,28.9818,-94.9186,982.5,11111222 
TABS,ioos:station:wmo:42043:1,2003-02-02T11:39:00Z,28.9818,-94.9186,982.43,11111222 
TABS,ioos:station:wmo:42043:1,2003-02-02T12:09:00Z,28.9818,-94.9186,982.94,11111222 
TABS,ioos:station:wmo:42043:1,2003-02-02T12:39:00Z,28.9818,-94.9186,983.38,11111222 
TABS,ioos:station:wmo:42043:1,2003-02-02T13:09:00Z,28.9818,-94.9186,983.38,11111222 
TABS,ioos:station:wmo:42043:1,2003-02-02T13:39:00Z,28.9818,-94.9186,989.92,11111222 
TABS,ioos:station:wmo:42043:1,2003-02-02T14:09:00Z,28.9818,-94.9186,1003.0,11111222 
TABS,ioos:station:wmo:42043:1,2003-02-02T14:39:00Z,28.9818,-94.9186,1014.74,11111222 
TABS,ioos:station:wmo:42043:1,2003-02-02T15:09:00Z,28.9818,-94.9186,1021.09,11111222 
TABS,ioos:station:wmo:42043:1,2003-02-02T15:39:00Z,28.9818,-94.9186,1026.29,11111222 
TABS,ioos:station:wmo:42043:1,2003-02-02T16:09:00Z,28.9818,-94.9186,1026.61,11111222 
TABS,ioos:station:wmo:42043:1,2003-02-02T16:39:00Z,28.9818,-94.9186,1026.74,11111222 
TABS,ioos:station:wmo:42043:1,2003-02-02T17:09:00Z,28.9818,-94.9186,1024.83,11111222 
TABS,ioos:station:wmo:42043:1,2003-02-02T17:39:00Z,28.9818,-94.9186,1024.58,11111222 
TABS,ioos:station:wmo:42043:1,2003-02-02T18:09:00Z,28.9818,-94.9186,1025.85,11111222 
TABS,ioos:station:wmo:42043:1,2003-02-02T18:39:00Z,28.9818,-94.9186,1026.29,11111222 
TABS,ioos:station:wmo:42043:1,2003-02-02T19:09:00Z,28.9818,-94.9186,1025.21,11111222 
TABS,ioos:station:wmo:42043:1,2003-02-02T19:39:00Z,28.9818,-94.9186,1025.34,11111222 
TABS,ioos:station:wmo:42043:1,2003-02-02T20:09:00Z,28.9818,-94.9186,1025.41,11111222 
TABS,ioos:station:wmo:42043:1,2003-02-02T20:39:00Z,28.9818,-94.9186,1024.83,11111222 
TABS,ioos:station:wmo:42043:1,2003-02-02T21:09:00Z,28.9818,-94.9186,1025.34,11111222 
TABS,ioos:station:wmo:42043:1,2003-02-02T22:39:00Z,28.9818,-94.9186,1017.92,11111222 
TABS,ioos:station:wmo:42043:1,2003-02-02T23:09:00Z,28.9818,-94.9186,1007.63,11111222 
TABS,ioos:station:wmo:42043:1,2003-02-02T23:39:00Z,28.9818,-94.9186,995.13,11111222 
TABS,ioos:station:wmo:42043:1,2003-02-03T00:09:00Z,28.9818,-94.9186,990.68,11111222 
TABS,ioos:station:wmo:42043:1,2003-02-03T00:39:00Z,28.9818,-94.9186,990.05,11111222 
TABS,ioos:station:wmo:42043:1,2003-02-03T01:09:00Z,28.9818,-94.9186,989.54,11111222 
TABS,ioos:station:wmo:42043:1,2003-02-03T01:39:00Z,28.9818,-94.9186,989.54,11111222 
TABS,ioos:station:wmo:42043:1,2003-02-03T02:09:00Z,28.9818,-94.9186,989.22,11111222 
TABS,ioos:station:wmo:42043:1,2003-02-03T02:39:00Z,28.9818,-94.9186,988.97,11111222 
TABS,ioos:station:wmo:42043:1,2003-02-03T03:09:00Z,28.9818,-94.9186,988.97,11111222 
TABS,ioos:station:wmo:42043:1,2003-02-03T03:39:00Z,28.9818,-94.9186,988.84,11111222 
TABS,ioos:station:wmo:42043:1,2003-02-03T04:09:00Z,28.9818,-94.9186,988.46,11111222 
TABS,ioos:station:wmo:42043:1,2003-02-03T04:39:00Z,28.9818,-94.9186,988.72,11111222 
TABS,ioos:station:wmo:42043:1,2003-02-03T05:09:00Z,28.9818,-94.9186,988.21,11111222 
TABS,ioos:station:wmo:42043:1,2003-02-03T05:39:00Z,28.9818,-94.9186,987.89,11111222 
TABS,ioos:station:wmo:42043:1,2003-02-03T06:09:00Z,28.9818,-94.9186,987.51,11111222 
TABS,ioos:station:wmo:42043:1,2003-02-03T06:39:00Z,28.9818,-94.9186,987.38,11111222 
TABS,ioos:station:wmo:42043:1,2003-02-03T07:09:00Z,28.9818,-94.9186,987.19,11111222 
TABS,ioos:station:wmo:42043:1,2003-02-03T07:39:00Z,28.9818,-94.9186,987.26,11111222 
TABS,ioos:station:wmo:42043:1,2003-02-03T08:09:00Z,28.9818,-94.9186,988.08,11111222 
TABS,ioos:station:wmo:42043:1,2003-02-03T08:39:00Z,28.9818,-94.9186,988.14,11111222 
TABS,ioos:station:wmo:42043:1,2003-02-03T09:09:00Z,28.9818,-94.9186,988.78,11111222 
TABS,ioos:station:wmo:42043:1,2003-02-03T09:39:00Z,28.9818,-94.9186,988.46,11111222 
TABS,ioos:station:wmo:42043:1,2003-02-03T10:09:00Z,28.9818,-94.9186,988.91,11111222 
TABS,ioos:station:wmo:42043:1,2003-02-03T10:39:00Z,28.9818,-94.9186,989.29,11111222 
TABS,ioos:station:wmo:42043:1,2003-02-03T11:09:00Z,28.9818,-94.9186,989.41,11111222 
TABS,ioos:station:wmo:42043:1,2003-02-03T11:39:00Z,28.9818,-94.9186,990.05,11111222 
TABS,ioos:station:wmo:42043:1,2003-02-03T12:09:00Z,28.9818,-94.9186,989.99,11111222 
TABS,ioos:station:wmo:42043:1,2003-02-03T12:39:00Z,28.9818,-94.9186,989.67,11111222 
TABS,ioos:station:wmo:42043:1,2003-02-03T13:09:00Z,28.9818,-94.9186,989.54,11111222 
TABS,ioos:station:wmo:42043:1,2003-02-03T13:39:00Z,28.9818,-94.9186,989.99,11111222 
TABS,ioos:station:wmo:42043:1,2003-02-03T14:09:00Z,28.9818,-94.9186,994.05,11111222 
TABS,ioos:station:wmo:42043:1,2003-02-03T14:39:00Z,28.9818,-94.9186,994.81,11111222 
TABS,ioos:station:wmo:42043:1,2003-02-03T15:09:00Z,28.9818,-94.9186,996.08,11111222 
TABS,ioos:station:wmo:42043:1,2003-02-03T15:39:00Z,28.9818,-94.9186,995.7,11111222 
TABS,ioos:station:wmo:42043:1,2003-02-03T16:09:00Z,28.9818,-94.9186,1013.73,11111222 
TABS,ioos:station:wmo:42043:1,2003-02-03T16:39:00Z,28.9818,-94.9186,1004.01,11111222 
TABS,ioos:station:wmo:42043:1,2003-02-03T17:09:00Z,28.9818,-94.9186,1000.33,11111222 
TABS,ioos:station:wmo:42043:1,2003-02-03T17:39:00Z,28.9818,-94.9186,997.54,11111222 
TABS,ioos:station:wmo:42043:1,2003-02-03T18:09:00Z,28.9818,-94.9186,1002.3,11111222 
TABS,ioos:station:wmo:42043:1,2003-02-03T18:39:00Z,28.9818,-94.9186,1017.47,11111222 
TABS,ioos:station:wmo:42043:1,2003-02-03T19:09:00Z,28.9818,-94.9186,1028.2,11111222 
TABS,ioos:station:wmo:42043:1,2003-02-03T19:39:00Z,28.9818,-94.9186,1030.29,11111222 
TABS,ioos:station:wmo:42043:1,2003-02-03T20:09:00Z,28.9818,-94.9186,1028.64,11111222 
TABS,ioos:station:wmo:42043:1,2003-02-03T20:39:00Z,28.9818,-94.9186,1023.25,11111222 
TABS,ioos:station:wmo:42043:1,2003-02-03T21:09:00Z,28.9818,-94.9186,1005.6,11111222 
TABS,ioos:station:wmo:42043:1,2003-02-03T21:39:00Z,28.9818,-94.9186,1011.19,11111222 
TABS,ioos:station:wmo:42043:1,2003-02-03T22:09:00Z,28.9818,-94.9186,1011.06,11111222 
TABS,ioos:station:wmo:42043:1,2003-02-03T22:39:00Z,28.9818,-94.9186,1001.16,11111222 
TABS,ioos:station:wmo:42043:1,2003-02-03T23:09:00Z,28.9818,-94.9186,995.38,11111222 
TABS,ioos:station:wmo:42043:1,2003-02-03T23:39:00Z,28.9818,-94.9186,995.51,11111222 
TABS,ioos:station:wmo:42043:1,2003-02-04T00:09:00Z,28.9818,-94.9186,990.05,11111222 
TABS,ioos:station:wmo:42043:1,2003-02-04T00:39:00Z,28.9818,-94.9186,988.53,11111222 
TABS,ioos:station:wmo:42043:1,2003-02-04T01:09:00Z,28.9818,-94.9186,988.78,11111222 
TABS,ioos:station:wmo:42043:1,2003-02-04T01:39:00Z,28.9818,-94.9186,988.21,11111222 
TABS,ioos:station:wmo:42043:1,2003-02-04T02:09:00Z,28.9818,-94.9186,991.0,11111222 
TABS,ioos:station:wmo:42043:1,2003-02-04T02:39:00Z,28.9818,-94.9186,989.54,11111222 
TABS,ioos:station:wmo:42043:1,2003-02-04T03:09:00Z,28.9818,-94.9186,992.4,11111222 
TABS,ioos:station:wmo:42043:1,2003-02-04T03:39:00Z,28.9818,-94.9186,991.95,11111222 
TABS,ioos:station:wmo:42043:1,2003-02-04T04:09:00Z,28.9818,-94.9186,988.59,11111222 
TABS,ioos:station:wmo:42043:1,2003-02-04T04:39:00Z,28.9818,-94.9186,988.02,11111222 
TABS,ioos:station:wmo:42043:1,2003-02-04T05:09:00Z,28.9818,-94.9186,986.49,11111222 
TABS,ioos:station:wmo:42043:1,2003-02-04T05:39:00Z,28.9818,-94.9186,985.92,11111222 
TABS,ioos:station:wmo:42043:1,2003-02-04T06:09:00Z,28.9818,-94.9186,985.29,11111222 
TABS,ioos:station:wmo:42043:1,2003-02-04T06:39:00Z,28.9818,-94.9186,984.02,11111222 
TABS,ioos:station:wmo:42043:1,2003-02-04T07:09:00Z,28.9818,-94.9186,982.62,11111222 
TABS,ioos:station:wmo:42043:1,2003-02-04T07:39:00Z,28.9818,-94.9186,980.91,11111222 
TABS,ioos:station:wmo:42043:1,2003-02-04T08:09:00Z,28.9818,-94.9186,979.32,11133222 
TABS,ioos:station:wmo:42043:1,2003-02-04T08:39:00Z,28.9818,-94.9186,977.23,11133222 
TABS,ioos:station:wmo:42043:1,2003-02-04T09:09:00Z,28.9818,-94.9186,975.77,11133222 
TABS,ioos:station:wmo:42043:1,2003-02-04T09:39:00Z,28.9818,-94.9186,975.0,11133222 
TABS,ioos:station:wmo:42043:1,2003-02-04T10:09:00Z,28.9818,-94.9186,973.99,11133222 
TABS,ioos:station:wmo:42043:1,2003-02-04T10:39:00Z,28.9818,-94.9186,972.85,11133222 
TABS,ioos:station:wmo:42043:1,2003-02-04T11:09:00Z,28.9818,-94.9186,971.64,11133222 
TABS,ioos:station:wmo:42043:1,2003-02-04T11:39:00Z,28.9818,-94.9186,970.5,11133222 
TABS,ioos:station:wmo:42043:1,2003-02-04T12:09:00Z,28.9818,-94.9186,969.99,11133222 
TABS,ioos:station:wmo:42043:1,2003-02-04T12:39:00Z,28.9818,-94.9186,968.66,11133222 
TABS,ioos:station:wmo:42043:1,2003-02-04T13:09:00Z,28.9818,-94.9186,968.47,11133222 
TABS,ioos:station:wmo:42043:1,2003-02-04T13:39:00Z,28.9818,-94.9186,973.42,11133222 
TABS,ioos:station:wmo:42043:1,2003-02-04T14:09:00Z,28.9818,-94.9186,982.05,11111222 
TABS,ioos:station:wmo:42043:1,2003-02-04T14:39:00Z,28.9818,-94.9186,983.64,11111222 
TABS,ioos:station:wmo:42043:1,2003-02-04T15:09:00Z,28.9818,-94.9186,984.15,11111222 
TABS,ioos:station:wmo:42043:1,2003-02-04T15:39:00Z,28.9818,-94.9186,983.07,11111222 
TABS,ioos:station:wmo:42043:1,2003-02-04T16:09:00Z,28.9818,-94.9186,982.94,11111222 
TABS,ioos:station:wmo:42043:1,2003-02-04T16:39:00Z,28.9818,-94.9186,981.16,11111222 
TABS,ioos:station:wmo:42043:1,2003-02-04T17:09:00Z,28.9818,-94.9186,981.16,11111222 
TABS,ioos:station:wmo:42043:1,2003-02-04T17:39:00Z,28.9818,-94.9186,981.8,11111222 
TABS,ioos:station:wmo:42043:1,2003-02-04T18:09:00Z,28.9818,-94.9186,981.61,11111222 
TABS,ioos:station:wmo:42043:1,2003-02-04T18:39:00Z,28.9818,-94.9186,981.86,11111222 
TABS,ioos:station:wmo:42043:1,2003-02-04T19:09:00Z,28.9818,-94.9186,981.42,11111222 
TABS,ioos:station:wmo:42043:1,2003-02-04T19:39:00Z,28.9818,-94.9186,978.81,11133222 
TABS,ioos:station:wmo:42043:1,2003-02-04T20:09:00Z,28.9818,-94.9186,978.12,11133222 
TABS,ioos:station:wmo:42043:1,2003-02-04T20:39:00Z,28.9818,-94.9186,979.07,11133222 
TABS,ioos:station:wmo:42043:1,2003-02-04T21:09:00Z,28.9818,-94.9186,980.78,11111222 
TABS,ioos:station:wmo:42043:1,2003-02-04T21:39:00Z,28.9818,-94.9186,982.18,11111222 
TABS,ioos:station:wmo:42043:1,2003-02-04T22:09:00Z,28.9818,-94.9186,983.76,11111222 
TABS,ioos:station:wmo:42043:1,2003-02-04T22:39:00Z,28.9818,-94.9186,984.46,11111222 
TABS,ioos:station:wmo:42043:1,2003-02-04T23:09:00Z,28.9818,-94.9186,978.31,11133222 
TABS,ioos:station:wmo:42043:1,2003-02-04T23:39:00Z,28.9818,-94.9186,974.24,11133222 
TABS,ioos:station:wmo:42043:1,2003-02-05T00:09:00Z,28.9818,-94.9186,972.28,11133222 
TABS,ioos:station:wmo:42043:1,2003-02-05T00:39:00Z,28.9818,-94.9186,972.15,11133222 
TABS,ioos:station:wmo:42043:1,2003-02-05T01:09:00Z,28.9818,-94.9186,972.4,11133222 
TABS,ioos:station:wmo:42043:1,2003-02-05T01:39:00Z,28.9818,-94.9186,972.53,11133222 
TABS,ioos:station:wmo:42043:1,2003-02-05T02:09:00Z,28.9818,-94.9186,973.29,11133222 
TABS,ioos:station:wmo:42043:1,2003-02-05T02:39:00Z,28.9818,-94.9186,973.54,11133222 
TABS,ioos:station:wmo:42043:1,2003-02-05T03:09:00Z,28.9818,-94.9186,973.16,11133222 
TABS,ioos:station:wmo:42043:1,2003-02-05T03:39:00Z,28.9818,-94.9186,973.61,11133222 
TABS,ioos:station:wmo:42043:1,2003-02-05T04:09:00Z,28.9818,-94.9186,974.05,11133222 
TABS,ioos:station:wmo:42043:1,2003-02-05T04:39:00Z,28.9818,-94.9186,974.24,11133222 
TABS,ioos:station:wmo:42043:1,2003-02-05T05:09:00Z,28.9818,-94.9186,975.13,11133222 
TABS,ioos:station:wmo:42043:1,2003-02-05T05:39:00Z,28.9818,-94.9186,975.7,11133222 
TABS,ioos:station:wmo:42043:1,2003-02-05T06:09:00Z,28.9818,-94.9186,976.08,11133222 
TABS,ioos:station:wmo:42043:1,2003-02-05T06:39:00Z,28.9818,-94.9186,976.59,11133222 
TABS,ioos:station:wmo:42043:1,2003-02-05T07:09:00Z,28.9818,-94.9186,976.78,11133222 
TABS,ioos:station:wmo:42043:1,2003-02-05T07:39:00Z,28.9818,-94.9186,977.04,11133222 
TABS,ioos:station:wmo:42043:1,2003-02-05T08:09:00Z,28.9818,-94.9186,976.66,11133222 
TABS,ioos:station:wmo:42043:1,2003-02-05T08:39:00Z,28.9818,-94.9186,976.4,11133222 
TABS,ioos:station:wmo:42043:1,2003-02-05T09:09:00Z,28.9818,-94.9186,977.35,11133222 
TABS,ioos:station:wmo:42043:1,2003-02-05T09:39:00Z,28.9818,-94.9186,977.48,11133222 
TABS,ioos:station:wmo:42043:1,2003-02-05T10:09:00Z,28.9818,-94.9186,978.43,11133222 
TABS,ioos:station:wmo:42043:1,2003-02-05T10:39:00Z,28.9818,-94.9186,978.31,11133222 
TABS,ioos:station:wmo:42043:1,2003-02-05T11:09:00Z,28.9818,-94.9186,977.99,11133222 
TABS,ioos:station:wmo:42043:1,2003-02-05T11:39:00Z,28.9818,-94.9186,977.61,11133222 
TABS,ioos:station:wmo:42043:1,2003-02-05T12:09:00Z,28.9818,-94.9186,977.16,11133222 
TABS,ioos:station:wmo:42043:1,2003-02-05T12:39:00Z,28.9818,-94.9186,977.61,11133222 
TABS,ioos:station:wmo:42043:1,2003-02-05T13:09:00Z,28.9818,-94.9186,978.12,11133222 
TABS,ioos:station:wmo:42043:1,2003-02-05T13:39:00Z,28.9818,-94.9186,978.81,11133222 
TABS,ioos:station:wmo:42043:1,2003-02-05T14:09:00Z,28.9818,-94.9186,980.91,11111222 
TABS,ioos:station:wmo:42043:1,2003-02-05T14:39:00Z,28.9818,-94.9186,992.33,11111222 
TABS,ioos:station:wmo:42043:1,2003-02-05T15:09:00Z,28.9818,-94.9186,988.4,11111222 
TABS,ioos:station:wmo:42043:1,2003-02-05T15:39:00Z,28.9818,-94.9186,992.78,11111222 
TABS,ioos:station:wmo:42043:1,2003-02-05T16:09:00Z,28.9818,-94.9186,999.13,11111222 
TABS,ioos:station:wmo:42043:1,2003-02-05T16:39:00Z,28.9818,-94.9186,993.54,11111222 
TABS,ioos:station:wmo:42043:1,2003-02-05T17:09:00Z,28.9818,-94.9186,993.92,11111222 
TABS,ioos:station:wmo:42043:1,2003-02-05T17:39:00Z,28.9818,-94.9186,996.84,11111222 
TABS,ioos:station:wmo:42043:1,2003-02-05T18:09:00Z,28.9818,-94.9186,990.49,11111222 
TABS,ioos:station:wmo:42043:1,2003-02-05T18:39:00Z,28.9818,-94.9186,991.25,11111222 
TABS,ioos:station:wmo:42043:1,2003-02-05T19:09:00Z,28.9818,-94.9186,992.71,11111222 
TABS,ioos:station:wmo:42043:1,2003-02-05T19:39:00Z,28.9818,-94.9186,994.17,11111222 
TABS,ioos:station:wmo:42043:1,2003-02-05T20:09:00Z,28.9818,-94.9186,993.16,11111222 
TABS,ioos:station:wmo:42043:1,2003-02-05T20:39:00Z,28.9818,-94.9186,991.76,11111222 
TABS,ioos:station:wmo:42043:1,2003-02-05T21:09:00Z,28.9818,-94.9186,989.22,11111222 
TABS,ioos:station:wmo:42043:1,2003-02-05T21:39:00Z,28.9818,-94.9186,985.16,11111222 
TABS,ioos:station:wmo:42043:1,2003-02-05T22:09:00Z,28.9818,-94.9186,983.64,11111222 
TABS,ioos:station:wmo:42043:1,2003-02-05T22:39:00Z,28.9818,-94.9186,983.0,11111222 
TABS,ioos:station:wmo:42043:1,2003-02-05T23:09:00Z,28.9818,-94.9186,982.18,11111222 
TABS,ioos:station:wmo:42043:1,2003-02-05T23:39:00Z,28.9818,-94.9186,979.13,11133222 
TABS,ioos:station:wmo:42043:1,2003-02-06T00:09:00Z,28.9818,-94.9186,979.07,11133222 
TABS,ioos:station:wmo:42043:1,2003-02-06T00:39:00Z,28.9818,-94.9186,980.46,11111222 
TABS,ioos:station:wmo:42043:1,2003-02-06T01:09:00Z,28.9818,-94.9186,981.29,11111222 
TABS,ioos:station:wmo:42043:1,2003-02-06T01:39:00Z,28.9818,-94.9186,981.73,11111222 
TABS,ioos:station:wmo:42043:1,2003-02-06T02:09:00Z,28.9818,-94.9186,981.86,11111222 
TABS,ioos:station:wmo:42043:1,2003-02-06T02:39:00Z,28.9818,-94.9186,981.23,11111222 
TABS,ioos:station:wmo:42043:1,2003-02-06T03:09:00Z,28.9818,-94.9186,981.23,11111222 
TABS,ioos:station:wmo:42043:1,2003-02-06T03:39:00Z,28.9818,-94.9186,981.73,11111222 
TABS,ioos:station:wmo:42043:1,2003-02-06T04:09:00Z,28.9818,-94.9186,982.37,11111222 
TABS,ioos:station:wmo:42043:1,2003-02-06T04:39:00Z,28.9818,-94.9186,981.29,11111222 
TABS,ioos:station:wmo:42043:1,2003-02-06T05:09:00Z,28.9818,-94.9186,980.91,11111222 
TABS,ioos:station:wmo:42043:1,2003-02-06T05:39:00Z,28.9818,-94.9186,981.04,11111222 
TABS,ioos:station:wmo:42043:1,2003-02-06T06:09:00Z,28.9818,-94.9186,981.1,11111222 
TABS,ioos:station:wmo:42043:1,2003-02-06T06:39:00Z,28.9818,-94.9186,981.48,11111222 
TABS,ioos:station:wmo:42043:1,2003-02-06T07:09:00Z,28.9818,-94.9186,981.92,11111222 
TABS,ioos:station:wmo:42043:1,2003-02-06T07:39:00Z,28.9818,-94.9186,982.43,11111222 
TABS,ioos:station:wmo:42043:1,2003-02-06T08:09:00Z,28.9818,-94.9186,982.88,11111222 
TABS,ioos:station:wmo:42043:1,2003-02-06T08:39:00Z,28.9818,-94.9186,983.83,11111222 
TABS,ioos:station:wmo:42043:1,2003-02-06T09:09:00Z,28.9818,-94.9186,983.38,11111222 
TABS,ioos:station:wmo:42043:1,2003-02-06T09:39:00Z,28.9818,-94.9186,983.7,11111222 
TABS,ioos:station:wmo:42043:1,2003-02-06T10:09:00Z,28.9818,-94.9186,983.89,11111222 
TABS,ioos:station:wmo:42043:1,2003-02-06T10:39:00Z,28.9818,-94.9186,984.02,11111222 
TABS,ioos:station:wmo:42043:1,2003-02-06T11:09:00Z,28.9818,-94.9186,984.34,11111222 
TABS,ioos:station:wmo:42043:1,2003-02-06T11:39:00Z,28.9818,-94.9186,984.46,11111222 
TABS,ioos:station:wmo:42043:1,2003-02-06T12:09:00Z,28.9818,-94.9186,984.84,11111222 
TABS,ioos:station:wmo:42043:1,2003-02-06T12:39:00Z,28.9818,-94.9186,989.03,11111222 
TABS,ioos:station:wmo:42043:1,2003-02-06T13:09:00Z,28.9818,-94.9186,989.86,11111222 
TABS,ioos:station:wmo:42043:1,2003-02-06T13:39:00Z,28.9818,-94.9186,988.27,11111222 
TABS,ioos:station:wmo:42043:1,2003-02-06T14:09:00Z,28.9818,-94.9186,988.78,11111222 
TABS,ioos:station:wmo:42043:1,2003-02-06T14:39:00Z,28.9818,-94.9186,989.29,11111222 
TABS,ioos:station:wmo:42043:1,2003-02-06T15:09:00Z,28.9818,-94.9186,989.54,11111222 
TABS,ioos:station:wmo:42043:1,2003-02-06T15:39:00Z,28.9818,-94.9186,993.54,11111222 
TABS,ioos:station:wmo:42043:1,2003-02-06T16:09:00Z,28.9818,-94.9186,994.81,11111222 
TABS,ioos:station:wmo:42043:1,2003-02-06T16:39:00Z,28.9818,-94.9186,995.32,11111222 
TABS,ioos:station:wmo:42043:1,2003-02-06T17:09:00Z,28.9818,-94.9186,998.17,11111222 
TABS,ioos:station:wmo:42043:1,2003-02-06T17:39:00Z,28.9818,-94.9186,1003.32,11111222 
TABS,ioos:station:wmo:42043:1,2003-02-06T18:09:00Z,28.9818,-94.9186,983.13,11111222 
TABS,ioos:station:wmo:42043:1,2003-02-06T18:39:00Z,28.9818,-94.9186,972.66,11133222 
TABS,ioos:station:wmo:42043:1,2003-02-06T19:09:00Z,28.9818,-94.9186,968.72,11133222 
TABS,ioos:station:wmo:42043:1,2003-02-06T19:39:00Z,28.9818,-94.9186,967.39,11133222 
TABS,ioos:station:wmo:42043:1,2003-02-06T20:09:00Z,28.9818,-94.9186,970.05,11133222 
TABS,ioos:station:wmo:42043:1,2003-02-06T20:39:00Z,28.9818,-94.9186,972.97,11133222 
TABS,ioos:station:wmo:42043:1,2003-02-06T21:09:00Z,28.9818,-94.9186,975.51,11133222 
TABS,ioos:station:wmo:42043:1,2003-02-06T21:39:00Z,28.9818,-94.9186,975.26,11133222 
TABS,ioos:station:wmo:42043:1,2003-02-06T22:09:00Z,28.9818,-94.9186,974.94,11133222 
TABS,ioos:station:wmo:42043:1,2003-02-06T22:39:00Z,28.9818,-94.9186,974.56,11133222 
TABS,ioos:station:wmo:42043:1,2003-02-06T23:09:00Z,28.9818,-94.9186,973.93,11133222 
TABS,ioos:station:wmo:42043:1,2003-02-06T23:39:00Z,28.9818,-94.9186,973.54,11133222 
TABS,ioos:station:wmo:42043:1,2003-02-07T00:09:00Z,28.9818,-94.9186,973.29,11133222 
TABS,ioos:station:wmo:42043:1,2003-02-07T00:39:00Z,28.9818,-94.9186,972.15,11133222 
TABS,ioos:station:wmo:42043:1,2003-02-07T01:09:00Z,28.9818,-94.9186,971.51,11133222 
TABS,ioos:station:wmo:42043:1,2003-02-07T01:39:00Z,28.9818,-94.9186,971.26,11133222 
TABS,ioos:station:wmo:42043:1,2003-02-07T02:09:00Z,28.9818,-94.9186,970.56,11133222 
TABS,ioos:station:wmo:42043:1,2003-02-07T02:39:00Z,28.9818,-94.9186,970.56,11133222 
TABS,ioos:station:wmo:42043:1,2003-02-07T03:09:00Z,28.9818,-94.9186,970.24,11133222 
TABS,ioos:station:wmo:42043:1,2003-02-07T03:39:00Z,28.9818,-94.9186,969.04,11133222 
TABS,ioos:station:wmo:42043:1,2003-02-07T04:09:00Z,28.9818,-94.9186,968.02,11133222 
TABS,ioos:station:wmo:42043:1,2003-02-07T04:39:00Z,28.9818,-94.9186,967.01,11133222 
TABS,ioos:station:wmo:42043:1,2003-02-07T05:09:00Z,28.9818,-94.9186,966.44,11133222 
TABS,ioos:station:wmo:42043:1,2003-02-07T05:39:00Z,28.9818,-94.9186,965.93,11133222 
TABS,ioos:station:wmo:42043:1,2003-02-07T06:09:00Z,28.9818,-94.9186,965.1,11133222 
TABS,ioos:station:wmo:42043:1,2003-02-07T06:39:00Z,28.9818,-94.9186,964.98,11133222 
TABS,ioos:station:wmo:42043:1,2003-02-07T07:09:00Z,28.9818,-94.9186,964.72,11133222 
TABS,ioos:station:wmo:42043:1,2003-02-07T07:39:00Z,28.9818,-94.9186,964.59,11133222 
TABS,ioos:station:wmo:42043:1,2003-02-07T08:09:00Z,28.9818,-94.9186,964.15,11133222 
TABS,ioos:station:wmo:42043:1,2003-02-07T08:39:00Z,28.9818,-94.9186,963.83,11133222 
TABS,ioos:station:wmo:42043:1,2003-02-07T09:09:00Z,28.9818,-94.9186,964.34,11133222 
TABS,ioos:station:wmo:42043:1,2003-02-07T09:39:00Z,28.9818,-94.9186,963.9,11133222 
TABS,ioos:station:wmo:42043:1,2003-02-07T10:09:00Z,28.9818,-94.9186,963.52,11133222 
TABS,ioos:station:wmo:42043:1,2003-02-07T10:39:00Z,28.9818,-94.9186,962.44,11133222 
TABS,ioos:station:wmo:42043:1,2003-02-07T11:09:00Z,28.9818,-94.9186,961.99,11133222 
TABS,ioos:station:wmo:42043:1,2003-02-07T11:39:00Z,28.9818,-94.9186,962.31,11133222 
TABS,ioos:station:wmo:42043:1,2003-02-07T12:09:00Z,28.9818,-94.9186,962.37,11133222 
TABS,ioos:station:wmo:42043:1,2003-02-07T12:39:00Z,28.9818,-94.9186,962.37,11133222 